OBJECT H, 60242

Orbit data source: Space-Track

You're viewing an Uncataloged Satellite

Recently launched and/or uncataloged satellites may have evolving metadata. Metadata may include but not limited to: Owner, Maufacturer, Bus, Motor, and Mission.

OBJECT H, 60242 is a satellite in LEO that was launched on Tue, 09 Jul 2024 UTC via an ARIANE 62 launch vehicle from the French Guiana (FRGUI). Unknown objects in Earth's orbit typically refer to objects detected orbiting the Earth but have not yet been identified or cataloged. These objects could be anything from previously untracked satellites, spent rocket stages, debris from satellite collisions, or even natural meteoroids temporarily captured by Earth's gravity.

Loading next visibility...
Identifier
60242, 2024-128H
Orbit
LEO
Country
Flag of TBDTBD
Related business
Flag of DEPlanetary Transportation Systems GmbH (DE)
Manufacturer
PTS
Mission
Operational Commercial Technology
Bus & Motor
CUBESAT 12U, Unknown motor
Mass
24 kg wet, 24 kg dry
Launch date (UTC)
2024-07-09 (1 year ago)
Launch vehicle
ARIANE 62
Launch site
French Guiana (FRGUI)
Object type
Unknown
Shape & HBR
Box, 0.1 m
Radar Cross Section
0.080 m², Medium (>0.1 m² and < 1m²)

Expand to show TLE details & history
Last TLE update: 12 hours ago

TLE from 12 hours ago
0 OBJECT H
1 60242U 24128H   25242.85877752  .00014327  00000-0  94989-3 0  9994
2 60242  61.9803 149.5383 0056410  71.9946 288.7283 15.06230431 62627
Epoch: 2025-08-30T20:36Z
TLE epoch observation values (Epoch: 2025-08-30T20:36:38.377Z)
Latitude
-0.00003°
Longitude
-138.90865°
Altitude
537.157 km
Speed
7.601 km/s
True Right ascension
09h 58m 09s
True Declination
0° 00' 00"
Sunlit
Object was in daylight at epoch
Visualization orbit readout
Latitude
Unknown
Longitude
Unknown
Altitude
Unknown
Speed
Unknown
Apparent Right ascension
Unknown
Apparent Declination
Unknown
Sunlit
N/A
Visualization observer readout
Local Sidereal Time
00:25:30
Azimuth
Unknown
Elevation
Unknown
Doppler factor
Unknown
Orbital elements
Apogee altitude
585.724 km
Perigee altitude
507.598 km
Semi-major axis
6,924.798 km
Eccentricity
0.00564
Inclination
61.9803°
RAAN
149.5383°
Arg. of periapsis
71.9946°
True anomaly
288.11474°
Mean anomaly
288.7283°
Eccentric anomaly
288.42166°
Mean motion
3.76645 °/min
Orbital period
95.58 mins
BSTAR
0.00094989
Loading maneuver chart data...
Computing Atmospheric mass density...
Loading historical data...
Loading historical data...
Loading historical data...
Loading historical data...
Loading historical data...
Loading historical data...
Loading historical data...

Documentation

Showing up to 5 results
|